Wind_Speed
34 26 22 22 20 18 14 10 7 5 3 2 1 1 2 2 2 5 5 1 2 5 3 2 3 5 8 7 9 13 7 7 8 9 10 7 9 12 12 6 12 15 13 13 15 11 7 5 2 5 9 6 9 10
34 30 28 24 22 19 15 12 9 6 4 3 2 1 1 1 2 4 1 4 2 3 3 5 6 7 6 6 9 8 6 5 8 5 4 3 9 1 16 7 3 3 6 3 10 5 1 11 10 12 6 8 9 9
39 32 28 25 21 20 17 13 10 8 6 4 2 2 0 0 1 1 1 5 4 4 7 6 4 1 2 2 3 6 4 4 2 6 7 3 1 12 5 7 5 4 3 0 6 6 11 8 7 9 6 7 8 9
37 35 28 24 22 22 19 15 11 9 6 4 2 2 1 0 1 1 3 4 3 4 6 6 1 2 3 2 1 1 4 6 7 5 4 4 9 15 10 5 8 8 5 3 1 7 6 9 8 6 6 6 8 8
38 35 28 25 23 22 19 16 12 9 7 5 3 3 2 1 2 3 1 2 4 2 7 5 2 3 3 3 2 1 3 4 4 4 5 3 11 9 10 6 3 7 5 1 3 7 4 9 5 4 5 7 8 9
40 34 29 24 23 22 20 16 12 10 7 6 4 3 2 2 3 4 4 2 3 4 4 3 5 5 6 5 4 2 3 3 3 3 3 5 5 6 6 8 14 6 5 8 7 3 5 5 3 4 6 7 7 8
38 36 29 29 25 22 20 16 13 10 8 6 4 3 3 3 4 3 2 4 0 2 3 5 6 8 7 8 9 9 4 5 5 3 5 11 13 8 8 9 6 9 7 7 7 3 4 5 7 7 8 7 9 10
37 32 28 31 26 23 20 16 13 10 8 6 4 3 3 3 5 2 2 2 2 1 3 4 2 5 10 12 12 6 9 7 7 5 2 5 3 6 5 6 2 14 12 4 7 9 7 5 7 10 9 10 19 15
39 35 29 33 28 25 19 16 12 11 8 6 5 5 6 3 3 4 5 3 1 3 5 4 7 4 7 13 2 2 6 6 6 7 10 11 8 7 8 2 1 3 4 4 3 1 2 1 4 16 10 8 2 5
32 41 34 36 32 27 21 17 14 12 10 9 10 2 5 4 5 4 2 2 4 6 6 8 5 3 5 11 10 5 5 7 4 9 9 5 11 6 5 2 5 5 5 5 5 7 5 4 1 2 9 5 10 6
41 42 41 35 29 27 22 19 17 14 13 8 5 2 1 5 3 2 3 5 7 4 8 11 8 6 6 6 3 8 2 4 5 5 5 6 7 11 7 2 1 3 2 0 0 1 1 3 4 5 2 2 4 3
21 25 28 30 28 24 22 20 19 17 9 10 4 6 6 4 3 4 4 4 5 4 6 7 8 12 3 3 2 5 2 4 5 2 4 8 5 9 9 7 4 4 5 5 5 4 4 3 2 1 3 1 1 2
23 22 24 27 26 22 23 22 22 15 13 8 3 5 3 4 1 5 8 5 5 6 6 8 8 7 4 5 5 3 3 5 5 3 5 4 9 8 6 7 6 5 4 4 4 3 2 1 1 3 5 6 7 8
22 19 20 26 25 22 21 21 21 20 9 6 6 1 5 5 5 5 6 4 9 3 8 5 4 7 4 3 6 3 4 4 5 5 3 5 11 10 8 4 4 3 3 3 4 4 5 5 6 7 8 9 9 11
20 24 23 22 22 20 19 21 22 13 3 4 5 3 7 5 2 5 1 2 6 4 3 5 4 4 7 4 3 2 4 5 1 2 4 12 13 9 7 3 2 3 5 7 7 8 8 8 8 9 9 10 11 12
26 27 24 24 20 18 20 21 20 5 3 3 4 5 3 7 9 9 9 8 7 6 6 5 4 4 4 3 3 6 4 2 4 7 8 10 9 7 4 2 4 6 7 9 9 8 8 8 8 9 10 10 10 9
30 11 25 24 20 17 19 13 10 4 4 4 6 7 9 6 4 5 6 4 5 5 4 2 3 5 3 3 4 2 2 3 7 6 7 8 6 4 4 5 6 8 7 8 7 6 6 7 8 6 5 5 7 7
21 18 25 26 24 20 11 8 6 5 6 8 5 10 8 2 4 3 6 6 4 3 4 3 4 3 4 3 2 4 7 7 6 6 6 4 3 4 5 5 6 6 5 5 6 7 4 4 4 5 7 7 6 6
24 25 25 23 24 11 6 5 2 4 11 10 6 6 7 7 3 7 6 6 6 3 4 3 3 1 3 2 7 5 4 3 2 1 1 1 3 5 6 4 4 4 3 4 3 3 4 4 3 5 4 4 5 6
31 29 27 27 19 5 2 4 3 4 5 8 10 12 6 3 8 9 7 7 8 9 5 3 4 6 4 7 5 4 2 1 4 6 4 3 2 5 6 6 4 4 3 4 3 4 2 2 2 4 4 4 4 5
29 29 24 13 5 5 4 6 7 4 3 5 7 6 6 8 7 7 5 5 8 4 4 3 2 4 3 1 2 2 3 3 5 6 8 9 6 7 7 3 3 4 3 2 1 2 3 2 3 4 3 5 6 9
20 15 10 5 3 4 3 5 3 4 4 4 8 8 5 7 7 5 2 7 5 2 1 1 1 1 2 2 2 4 6 7 8 8 8 7 5 3 1 4 3 2 3 3 1 2 3 3 5 9 8 4 6 8
10 4 4 2 2 2 2 5 5 4 4 7 7 5 4 5 5 3 4 3 2 0 2 3 2 3 4 5 6 7 8 8 7 7 6 4 2 3 4 2 4 8 8 6 8 9 11 11 7 7 4 4 1 1
4 1 1 2 2 2 4 4 3 2 4 5 5 4 2 3 1 3 2 2 2 2 4 4 4 5 4 4 4 4 4 4 4 4 4 5 5 4 10 8 7 7 9 10 10 9 8 4 4 2 3 6 6 5
3 1 2 3 2 3 4 4 1 2 2 1 2 2 4 1 1 2 1 5 3 3 2 4 4 4 4 3 3 4 0 4 3 2 4 5 12 11 7 5 6 7 8 8 7 7 5 3 3 3 4 7 5 5
1 4 3 3 4 2 3 3 3 2 1 1 1 2 2 2 1 2 2 5 1 2 3 6 6 4 3 2 2 5 3 10 17 12 13 12 10 7 8 7 7 5 3 3 2 1 1 4 3 3 1 1 5 3
2 2 4 3 2 2 2 2 2 2 2 3 3 3 1 2 3 1 2 1 3 3 5 3 4 3 3 5 3 11 16 12 9 7 8 7 6 6 6 4 0 2 4 3 3 3 1 1 2 4 5 4 2 2
3 2 3 5 4 3 2 2 3 3 4 3 2 3 2 2 1 1 1 3 3 4 1 1 1 7 14 13 13 11 9 8 9 6 5 5 4 2 1 4 3 6 2 1 1 3 5 5 4 4 5 4 1 2
2 3 3 4 4 3 4 2 1 1 2 2 3 1 3 2 1 5 6 6 3 4 4 12 19 14 9 6 6 8 8 8 7 5 5 7 7 4 5 5 2 2 5 4 4 4 3 4 2 3 5 4 5 6
1 2 1 2 2 0 1 1 2 1 1 1 3 7 8 9 10 8 6 6 9 16 19 13 11 8 8 8 7 6 7 5 9 9 9 11 8 10 7 5 5 4 3 3 4 3 4 1 5 5 6 7 6 6
1 2 1 1 2 4 4 1 1 4 6 4 2 7 8 6 1 7 11 17 23 15 9 9 8 5 6 6 1 3 9 4 5 1 2 1 3 3 5 5 4 3 3 4 4 6 6 8 8 10 8 5 6 8
3 4 2 3 3 0 3 3 3 3 2 2 2 3 7 11 11 14 19 15 10 9 6 1 5 5 1 3 3 2 2 2 1 3 4 3 1 3 4 4 4 4 5 7 8 8 7 8 9 7 6 7 6 7
2 3 2 2 2 2 4 4 5 7 4 7 7 12 12 11 9 9 12 11 7 4 3 2 2 3 2 1 2 3 5 7 7 6 7 9 12 10 8 5 5 5 7 7 8 9 8 6 7 7 8 8 7 7
Wind_Direction
201 201 212 221 220 217 221 224 231 242 264 261 238 329 343 35 61 125 255 33 85 277 332 343 323 336 329 357 325 10 261 203 249 260 246 258 261 239 234 71 299 197 212 230 227 259 160 43 246 249 99 124 133 138
195 199 200 215 216 213 216 217 224 235 245 278 229 196 331 357 88 112 298 331 333 268 328 304 271 275 274 287 310 309 336 3 0 286 346 12 282 260 269 199 144 283 360 9 17 83 13 70 65 96 94 110 118 125
195 194 205 209 211 211 213 212 217 228 235 257 252 213 285 273 120 134 20 349 338 295 265 237 181 208 224 277 258 299 88 333 345 342 346 324 356 300 243 246 202 161 327 17 155 58 95 109 115 102 104 102 128 128
194 199 205 207 209 210 210 210 212 224 239 246 248 215 255 291 115 120 83 340 360 299 275 124 187 173 207 228 149 251 320 318 307 311 312 314 336 348 315 23 280 39 174 109 281 125 132 97 81 78 93 119 141 137
195 196 203 203 207 207 207 207 209 217 232 240 244 221 231 182 128 129 76 4 25 5 327 49 162 191 182 166 143 63 331 318 313 251 223 330 323 334 297 305 235 200 60 125 58 25 10 75 66 85 113 127 137 135
196 193 199 199 203 205 204 205 207 215 227 234 229 212 217 176 135 96 182 2 21 357 283 234 117 181 196 194 201 229 269 286 283 297 156 250 301 313 289 318 2 48 36 24 55 37 54 85 96 119 111 132 141 139
199 198 203 201 200 203 204 204 208 213 215 221 213 214 199 176 170 229 16 185 6 99 263 252 189 177 201 208 222 232 226 236 263 224 225 167 247 293 283 281 127 275 99 89 81 85 124 160 149 105 122 117 128 137
201 208 210 201 194 201 202 204 206 206 201 198 198 182 166 138 108 66 199 151 54 205 241 267 207 183 190 221 220 206 249 212 202 240 152 204 331 195 273 72 41 32 316 110 79 58 56 80 123 147 137 109 77 62
202 212 206 201 199 198 200 204 200 194 186 177 159 134 115 107 195 207 242 230 280 230 289 242 269 100 174 240 258 210 244 246 148 228 207 175 189 209 248 287 349 72 338 344 342 49 57 53 119 142 131 114 140 65
215 213 204 206 193 193 194 196 191 184 172 156 138 162 171 187 211 176 3 160 204 208 231 259 290 277 191 205 197 246 184 261 218 209 138 213 239 180 154 346 325 322 304 283 277 232 219 215 169 50 136 127 139 134
194 206 197 185 175 178 191 188 182 171 157 147 177 158 142 165 131 197 210 212 189 224 206 232 261 291 172 257 62 294 269 347 242 197 213 210 227 143 129 110 14 356 323 101 133 30 212 16 131 164 147 115 114 123
145 168 166 168 167 172 183 179 172 159 175 178 139 133 134 202 198 222 203 196 232 224 156 215 199 221 114 241 322 328 255 302 258 97 234 248 103 126 127 118 105 87 85 86 92 90 98 102 91 263 262 275 282 283
163 165 172 164 153 171 174 174 170 166 160 149 150 158 191 167 173 215 188 203 197 162 165 193 186 201 182 223 262 192 249 243 317 244 236 63 128 122 124 131 116 92 85 77 69 62 44 6 307 296 300 293 299 298
167 172 173 162 158 166 168 170 165 155 132 188 154 36 215 193 225 202 223 156 93 137 167 197 156 199 167 144 229 244 283 278 232 219 235 126 147 134 125 99 100 77 30 12 2 346 330 322 313 312 306 311 309 306
169 162 156 153 158 162 166 163 162 142 165 186 194 221 202 255 228 199 339 95 160 183 133 195 237 194 193 220 221 220 227 237 295 11 99 139 145 151 134 109 23 347 335 328 322 318 314 311 311 313 314 310 308 306
160 153 155 157 156 157 159 160 158 144 182 203 227 233 174 210 185 198 186 202 154 185 159 223 212 205 214 222 202 222 267 336 36 33 111 132 129 120 98 30 351 334 327 319 313 309 308 312 309 304 308 305 304 313
156 153 169 162 157 148 141 144 163 197 216 208 211 228 207 259 161 159 151 122 156 161 197 246 229 199 272 249 235 260 3 78 115 120 108 100 91 60 17 354 335 327 322 321 322 320 314 321 318 310 321 329 338 332
166 161 160 157 153 140 138 141 177 208 212 220 214 182 205 231 213 189 191 185 182 187 199 233 246 193 208 252 337 5 71 76 114 125 96 71 28 5 347 338 345 341 333 321 319 308 307 347 1 3 344 340 340 340
163 156 154 152 143 127 148 178 208 217 222 176 185 178 188 208 161 197 204 187 204 226 247 234 227 176 319 296 88 64 89 107 134 212 61 116 349 333 322 309 310 330 347 326 338 344 338 342 5 355 352 8 13 21
136 136 130 131 136 133 137 166 200 258 220 190 209 189 195 219 192 193 171 178 186 195 212 219 23 264 18 44 64 104 123 344 304 305 296 116 12 332 313 307 298 335 329 318 335 343 337 3 42 28 27 47 42 24
130 143 146 142 171 192 208 188 195 221 221 200 201 192 196 188 210 181 173 177 213 221 218 250 1 45 32 7 324 298 302 289 305 311 305 297 304 308 297 279 304 313 307 249 224 114 88 53 73 74 57 69 54 49
139 132 160 196 208 200 217 199 217 186 210 196 182 197 180 173 179 189 149 231 237 167 234 347 303 214 241 249 297 304 293 285 286 284 292 279 284 282 301 308 239 224 143 124 125 121 114 105 101 102 99 97 68 60
120 141 181 198 230 222 214 180 205 193 198 181 175 172 181 150 123 178 230 247 19 3 227 244 234 272 277 285 287 283 279 267 262 264 258 252 226 207 252 243 144 137 114 101 92 93 112 111 90 74 53 33 20 123
104 298 257 251 215 226 166 180 190 194 162 173 173 149 133 86 135 219 280 263 134 229 241 246 258 253 266 285 283 292 267 249 237 238 222 231 219 210 148 145 146 142 127 123 121 114 100 86 100 43 36 42 41 34
282 321 240 269 229 179 184 160 161 93 141 156 74 132 121 219 225 62 231 269 228 244 221 236 240 243 255 290 315 305 278 152 174 237 172 151 149 151 152 151 147 137 136 135 137 140 143 135 63 22 18 22 351 33
303 183 193 204 154 190 178 127 168 182 111 141 156 80 201 259 103 264 275 39 19 238 273 266 242 228 233 258 168 159 155 126 123 128 130 128 124 133 143 167 145 145 142 151 137 154 63 73 29 349 10 355 67 2
256 169 163 167 184 139 122 74 77 195 206 209 199 176 196 235 212 235 80 271 262 266 288 277 198 219 204 169 171 141 137 145 156 151 160 156 143 175 138 142 345 163 138 139 164 146 211 352 330 347 351 2 42 27
240 318 138 181 175 189 197 210 196 207 214 189 167 218 220 227 90 70 331 328 306 292 258 181 201 151 136 125 122 143 150 143 157 178 189 159 156 154 172 160 150 157 134 134 232 256 259 262 283 292 311 335 261 330
206 195 209 201 217 180 225 183 27 312 352 313 274 235 333 44 334 304 306 294 305 151 159 145 139 135 140 140 134 149 162 173 183 191 159 263 253 252 187 188 164 179 194 166 85 66 274 259 330 289 296 292 267 289
204 166 215 245 215 155 356 204 142 161 7 277 267 276 297 306 301 287 251 180 148 147 139 142 156 164 168 170 180 206 210 215 228 233 268 214 223 198 180 188 200 209 200 220 218 223 0 306 258 279 274 289 313 303
220 188 67 241 265 275 349 351 288 244 267 292 245 239 264 286 26 141 144 143 144 151 177 197 211 217 223 226 174 242 237 211 144 136 298 89 155 158 171 173 185 201 223 252 278 289 297 301 305 302 301 289 295 319
186 185 226 231 223 291 88 60 57 73 112 158 196 126 112 105 108 133 150 159 178 207 204 232 205 197 167 269 297 200 211 318 225 224 220 246 217 194 209 227 252 268 279 282 281 289 293 296 302 306 296 307 303 298
175 174 197 66 45 99 154 161 162 159 160 128 120 134 124 126 134 167 188 191 211 209 201 290 348 4 333 291 254 251 217 226 228 216 231 241 242 230 234 274 271 266 279 282 284 290 300 305 296 297 293 291 290 291
Height
1496 1501 1507 1511 1514 1517 1520 1521 1522 1522 1522 1522 1521 1521 1520 1520 1520 1519 1520 1518 1519 1515 1512 1514 1514 1513 1511 1508 1500 1504 1499 1495 1487 1484 1475 1469 1468 1459 1462 1471 1472 1469 1474 1468 1462 1470 1490 1469 1472 1472 1483 1484 1486 1492
1489 1495 1503 1507 1511 1514 1517 1519 1520 1521 1521 1521 1521 1520 1520 1520 1519 1519 1522 1518 1516 1517 1513 1513 1513 1513 1515 1516 1516 1508 1506 1505 1503 1490 1481 1483 1481 1474 1472 1471 1469 1475 1475 1479 1480 1487 1484 1481 1489 1483 1489 1489 1490 1495
1483 1492 1499 1503 1507 1510 1514 1516 1518 1519 1520 1521 1520 1519 1520 1520 1519 1518 1518 1517 1518 1516 1511 1511 1511 1514 1514 1515 1515 1513 1509 1512 1508 1507 1498 1494 1505 1488 1478 1468 1467 1472 1475 1470 1480 1484 1487 1490 1491 1491 1494 1493 1495 1498
1479 1487 1494 1499 1503 1508 1511 1514 1516 1518 1519 1519 1519 1519 1519 1519 1518 1518 1520 1518 1519 1518 1511 1509 1511 1513 1514 1515 1515 1515 1515 1514 1511 1508 1502 1498 1497 1488 1482 1476 1470 1472 1475 1474 1476 1483 1486 1490 1492 1493 1495 1496 1498 1500
1475 1483 1491 1496 1500 1505 1508 1511 1514 1516 1518 1518 1518 1518 1518 1518 1517 1517 1520 1519 1519 1522 1513 1507 1511 1513 1513 1514 1514 1515 1516 1514 1511 1507 1504 1506 1507 1505 1485 1478 1477 1474 1478 1479 1488 1488 1488 1492 1496 1497 1498 1499 1501 1502
1471 1479 1487 1492 1497 1502 1506 1509 1512 1514 1515 1517 1517 1517 1518 1517 1517 1519 1522 1521 1520 1519 1520 1504 1509 1512 1513 1513 1514 1515 1515 1514 1512 1510 1509 1511 1514 1516 1500 1488 1484 1481 1484 1486 1489 1494 1496 1498 1500 1500 1501 1500 1503 1504
1468 1475 1482 1488 1494 1498 1503 1507 1510 1512 1514 1516 1516 1517 1517 1517 1517 1521 1521 1520 1519 1519 1520 1509 1501 1508 1511 1512 1512 1511 1512 1511 1511 1510 1510 1513 1519 1517 1504 1499 1497 1487 1489 1495 1495 1495 1497 1499 1501 1503 1503 1505 1506 1507
1466 1472 1477 1484 1489 1496 1501 1505 1508 1511 1513 1513 1515 1516 1517 1518 1519 1520 1519 1519 1519 1521 1521 1510 1499 1504 1509 1507 1506 1508 1507 1507 1508 1506 1510 1511 1515 1519 1510 1503 1500 1506 1505 1501 1499 1498 1499 1502 1503 1503 1506 1505 1508 1512
1462 1468 1474 1479 1486 1492 1498 1503 1507 1509 1511 1513 1515 1517 1517 1519 1521 1520 1520 1519 1519 1524 1515 1508 1496 1496 1505 1504 1502 1506 1506 1500 1502 1503 1505 1507 1510 1514 1503 1503 1506 1509 1504 1505 1504 1502 1503 1503 1505 1495 1507 1510 1512 1515
1456 1462 1469 1475 1482 1489 1495 1501 1505 1508 1511 1514 1516 1519 1517 1519 1519 1520 1520 1521 1522 1520 1518 1510 1501 1497 1502 1499 1500 1500 1499 1496 1492 1492 1496 1502 1497 1493 1497 1502 1503 1503 1504 1505 1502 1502 1503 1504 1505 1505 1508 1508 1510 1510
1448 1457 1463 1471 1480 1487 1494 1499 1504 1509 1512 1515 1516 1515 1517 1518 1520 1520 1518 1517 1513 1512 1508 1506 1502 1499 1502 1500 1498 1503 1498 1500 1493 1486 1492 1488 1488 1492 1500 1503 1503 1502 1501 1501 1503 1503 1505 1506 1504 1509 1512 1513 1514 1517
1453 1458 1464 1471 1478 1486 1492 1498 1503 1508 1513 1513 1514 1516 1518 1520 1518 1517 1513 1509 1507 1500 1501 1502 1502 1504 1503 1506 1503 1504 1501 1500 1496 1497 1489 1487 1493 1497 1500 1504 1505 1505 1506 1506 1507 1508 1509 1510 1511 1513 1514 1514 1515 1516
1457 1462 1467 1473 1478 1486 1492 1498 1502 1506 1511 1514 1516 1516 1515 1517 1518 1511 1506 1499 1495 1499 1501 1503 1503 1505 1507 1507 1505 1503 1503 1497 1491 1491 1486 1491 1499 1501 1503 1505 1507 1508 1508 1509 1509 1510 1510 1511 1512 1513 1513 1513 1513 1513
1460 1465 1470 1475 1481 1487 1493 1497 1502 1507 1511 1512 1511 1518 1511 1507 1501 1495 1491 1488 1495 1497 1500 1500 1498 1503 1501 1507 1504 1505 1496 1492 1495 1485 1484 1494 1502 1505 1507 1508 1508 1509 1510 1510 1510 1510 1510 1511 1511 1511 1511 1510 1510 1509
1462 1468 1473 1478 1483 1489 1493 1498 1502 1507 1510 1508 1508 1509 1502 1496 1496 1494 1494 1497 1501 1501 1501 1503 1500 1501 1500 1500 1497 1497 1501 1493 1485 1488 1494 1500 1504 1506 1507 1509 1509 1509 1509 1509 1509 1509 1509 1509 1508 1508 1507 1507 1506 1506
1464 1471 1476 1481 1486 1491 1495 1500 1504 1509 1508 1507 1506 1499 1497 1497 1493 1496 1497 1497 1499 1500 1502 1501 1498 1497 1496 1494 1494 1495 1487 1491 1496 1498 1500 1502 1504 1506 1508 1508 1509 1508 1508 1507 1506 1506 1506 1506 1505 1505 1505 1504 1504 1502
1468 1471 1477 1484 1489 1494 1498 1504 1507 1507 1504 1504 1499 1497 1494 1491 1490 1491 1493 1494 1500 1503 1504 1501 1499 1497 1493 1492 1491 1488 1493 1497 1501 1502 1503 1505 1506 1507 1507 1507 1507 1506 1506 1505 1503 1503 1503 1502 1503 1502 1502 1501 1501 1500
1471 1474 1480 1486 1491 1496 1501 1503 1505 1504 1502 1498 1496 1495 1496 1497 1496 1496 1498 1500 1502 1504 1504 1501 1496 1497 1495 1493 1497 1490 1496 1500 1501 1503 1504 1507 1507 1507 1507 1507 1505 1504 1503 1503 1503 1502 1502 1501 1501 1500 1501 1500 1500 1498
1472 1478 1485 1489 1494 1498 1502 1504 1504 1499 1496 1494 1494 1496 1497 1497 1498 1501 1500 1501 1502 1502 1500 1498 1495 1496 1499 1493 1496 1501 1502 1504 1505 1505 1504 1506 1507 1507 1506 1505 1505 1504 1502 1502 1502 1501 1501 1501 1501 1501 1500 1499 1499 1498
1480 1485 1490 1494 1499 1501 1502 1503 1504 1500 1494 1494 1494 1495 1496 1499 1500 1497 1498 1499 1499 1499 1497 1496 1495 1500 1495 1497 1500 1503 1504 1504 1504 1503 1503 1503 1505 1506 1506 1504 1503 1503 1502 1502 1501 1501 1501 1501 1500 1500 1500 1499 1499 1499
1488 1493 1496 1498 1501 1502 1502 1499 1499 1498 1496 1494 1493 1495 1498 1500 1498 1496 1498 1498 1498 1497 1497 1497 1498 1498 1501 1503 1503 1503 1504 1505 1505 1505 1505 1505 1505 1505 1503 1502 1502 1502 1502 1501 1502 1501 1502 1501 1501 1501 1501 1501 1501 1500
1495 1497 1501 1501 1500 1500 1499 1498 1498 1495 1496 1496 1497 1497 1497 1498 1498 1497 1499 1497 1493 1495 1495 1497 1498 1500 1501 1503 1503 1504 1504 1504 1504 1504 1503 1503 1503 1502 1502 1502 1502 1502 1502 1502 1502 1502 1502 1502 1503 1503 1502 1504 1503 1502
1499 1500 1500 1499 1499 1498 1498 1497 1497 1495 1494 1494 1493 1494 1491 1493 1495 1499 1495 1493 1494 1497 1499 1500 1501 1501 1502 1502 1501 1501 1501 1501 1501 1501 1500 1500 1500 1501 1500 1501 1501 1502 1503 1504 1504 1505 1504 1505 1506 1505 1504 1502 1501 1502
1500 1501 1500 1498 1497 1495 1495 1495 1494 1494 1493 1492 1492 1491 1491 1492 1497 1494 1495 1492 1494 1497 1499 1500 1500 1500 1501 1500 1500 1499 1498 1498 1498 1498 1498 1499 1500 1500 1502 1503 1504 1504 1505 1506 1507 1508 1508 1507 1506 1505 1505 1504 1503 1503
1503 1501 1501 1498 1496 1495 1493 1490 1492 1490 1491 1491 1490 1491 1492 1496 1492 1498 1500 1494 1494 1496 1497 1499 1499 1499 1499 1499 1498 1497 1496 1496 1497 1498 1498 1498 1499 1502 1503 1504 1505 1506 1506 1507 1507 1508 1508 1508 1507 1507 1506 1506 1505 1504
1502 1498 1499 1493 1493 1492 1491 1491 1493 1492 1491 1493 1493 1494 1496 1493 1496 1503 1492 1495 1497 1498 1498 1497 1497 1498 1497 1497 1497 1497 1498 1498 1499 1502 1503 1503 1503 1504 1505 1506 1505 1507 1507 1507 1507 1508 1508 1508 1509 1508 1507 1506 1505 1504
1500 1495 1495 1495 1494 1492 1492 1492 1493 1493 1493 1493 1492 1494 1496 1495 1498 1493 1495 1497 1497 1497 1496 1495 1495 1496 1496 1497 1497 1498 1500 1501 1503 1503 1504 1504 1505 1505 1507 1507 1507 1507 1507 1509 1509 1509 1510 1510 1509 1508 1507 1506 1505 1505
1498 1496 1496 1496 1495 1494 1493 1492 1493 1492 1491 1491 1494 1492 1493 1492 1494 1496 1496 1496 1496 1495 1495 1495 1495 1494 1496 1498 1499 1500 1502 1504 1504 1504 1505 1505 1506 1506 1507 1507 1507 1508 1508 1509 1509 1510 1509 1509 1508 1508 1507 1505 1505 1505
1497 1497 1496 1494 1494 1494 1493 1493 1496 1496 1495 1495 1494 1493 1493 1494 1496 1496 1496 1495 1495 1495 1495 1496 1498 1499 1500 1499 1501 1503 1504 1504 1504 1504 1505 1507 1505 1505 1505 1506 1507 1507 1507 1508 1508 1508 1507 1507 1507 1507 1506 1505 1504 1504
1497 1497 1498 1495 1494 1494 1495 1494 1494 1496 1496 1497 1497 1497 1496 1495 1494 1493 1492 1493 1495 1496 1498 1499 1499 1500 1500 1500 1501 1501 1500 1501 1501 1502 1501 1500 1502 1502 1503 1505 1506 1506 1506 1507 1506 1506 1506 1505 1505 1505 1504 1503 1503 1502
1497 1497 1498 1498 1497 1496 1495 1495 1495 1495 1495 1495 1494 1495 1494 1493 1491 1492 1494 1495 1498 1500 1499 1499 1498 1499 1499 1499 1500 1501 1498 1499 1500 1501 1500 1500 1500 1502 1503 1504 1505 1505 1506 1506 1506 1505 1505 1504 1503 1502 1501 1501 1501 1500
1497 1497 1497 1496 1496 1495 1494 1494 1494 1494 1494 1494 1494 1493 1493 1493 1494 1497 1498 1499 1500 1500 1499 1500 1501 1497 1499 1499 1499 1500 1499 1500 1500 1501 1503 1502 1502 1503 1503 1504 1504 1504 1504 1504 1503 1503 1502 1501 1500 1500 1499 1499 1499 1499
1496 1495 1495 1495 1495 1496 1496 1494 1494 1495 1495 1494 1494 1493 1492 1493 1495 1497 1499 1499 1498 1499 1500 1499 1499 1499 1499 1499 1500 1500 1499 1499 1499 1500 1500 1501 1501 1501 1502 1502 1502 1502 1502 1502 1501 1500 1499 1499 1499 1498 1499 1498 1498 1498